GW6322 Weather Reports


time (UTC)temp
F
wind
direction
speed
knots
gust
knots
rain 1hr
in
rain 24hr
in
rain mn
in
humidity
%
barometer
mb
20260504204540 80 173 6.1 15.6 0.00 0.00 0.00 33 998.9
20260504203033 80 206 7.0 14.8 0.00 0.00 0.00 32 999.1
20260504201533 80 188 5.2 16.5 0.00 0.00 0.00 33 999.3
20260504200034 80 193 7.8 19.1 0.00 0.00 0.00 32 999.6
20260504194534 79 183 7.0 17.4 0.00 0.00 0.00 33 999.6
20260504193038 80 182 7.8 24.3 0.00 0.00 0.00 34 999.8
20260504191534 80 163 6.1 20.0 0.00 0.00 0.00 35 999.8
20260504190038 80 151 8.7 25.2 0.00 0.00 0.00 36 1000.0
20260504184534 79 193 9.6 23.5 0.00 0.00 0.00 37 1000.0
20260504183036 80 173 10.4 15.6 0.00 0.00 0.00 35 1000.3
20260504181536 80 182 3.5 19.1 0.00 0.00 0.00 35 1000.2
20260504180040 79 197 8.7 20.0 0.00 0.00 0.00 37 1000.2
20260504174536 79 180 7.0 18.2 0.00 0.00 0.00 37 1000.1
20260504173032 78 177 10.4 20.0 0.00 0.00 0.00 39 1000.2
20260504171533 77 175 10.4 17.4 0.00 0.00 0.00 40 1000.3
20260504081537 52 196 1.7 5.2 0.00 0.00 0.00 71 1004.9
20260504044537 59 226 1.7 3.5 0.00 0.00 0.00 55 1006.8
20260504043043 60 192 1.7 3.5 0.00 0.00 0.00 55 1006.9
20260504041535 60 188 1.7 3.5 0.00 0.00 0.00 54 1006.9
20260504040035 61 196 0.9 4.3 0.00 0.00 0.00 53 1006.9
20260504034536 62 195 1.7 5.2 0.00 0.00 0.00 53 1006.9
20260504033039 62 173 2.6 5.2 0.00 0.00 0.00 52 1006.9
20260504031532 63 198 2.6 5.2 0.00 0.00 0.00 50 1007.0
20260504030042 63 205 3.5 7.0 0.00 0.00 0.00 50 1007.0
20260504024533 64 164 4.3 10.4 0.00 0.00 0.00 49 1006.9
20260504023034 65 184 4.3 8.7 0.00 0.00 0.00 49 1006.7
20260504021535 65 170 3.5 7.0 0.00 0.00 0.00 48 1006.6
20260504020040 66 175 3.5 7.8 0.00 0.00 0.00 47 1006.4
20260504014537 67 184 3.5 8.7 0.00 0.00 0.00 46 1006.4
20260504013031 67 198 5.2 9.6 0.00 0.00 0.00 45 1006.2
20260504011532 68 194 3.5 7.8 0.00 0.00 0.00 44 1006.1
20260504010032 69 188 2.6 12.2 0.00 0.00 0.00 44 1006.0
20260504004534 69 175 4.3 9.6 0.00 0.00 0.00 44 1005.9
20260504003033 70 181 5.2 11.3 0.00 0.00 0.00 43 1005.8
20260504001535 70 155 6.1 15.6 0.00 0.00 0.00 43 1005.9
20260504000031 70 198 6.1 17.4 0.00 0.00 0.00 44 1005.7
20260503234531 71 178 5.2 15.6 0.00 0.00 0.00 44 1005.7
20260503233032 71 160 7.8 17.4 0.00 0.00 0.00 42 1005.9
20260503231537 71 202 7.8 18.2 0.00 0.00 0.00 43 1006.0
20260503230033 71 174 7.8 15.6 0.00 0.00 0.00 44 1006.0
20260503224539 71 199 10.4 25.2 0.00 0.00 0.00 42 1006.0
20260503223036 72 197 8.7 19.1 0.00 0.00 0.00 42 1006.2
20260503221536 72 165 10.4 20.9 0.00 0.00 0.00 41 1005.8
20260503220039 72 166 8.7 20.9 0.00 0.00 0.00 40 1006.0
20260503214540 71 146 13.0 25.2 0.00 0.00 0.00 41 1005.9
20260503213032 72 178 9.6 18.2 0.00 0.00 0.00 40 1006.1
20260503211541 72 185 9.6 18.2 0.00 0.00 0.00 40 1006.2
20260503210036 72 134 8.7 20.0 0.00 0.00 0.00 40 1006.3